Regional Weather Roundup
Issued by NWS

Home | Current Version | Previous Version | Graphics & Text | Print | Product List | Glossary On
Versions: 1 2 3 4 5 6 7 8 9 10 11 12 13 14 15 16 17 18 19 20 21 22 23 24 25 26 27 28 29 30 31 32 33 34 35 36 37 38 39 40 41 42 43 44 45 46 47 48 49 50
000
ASUS43 KDMX 292108
RWRIA

WEATHER ROUNDUP FOR IOWA
NATIONAL WEATHER SERVICE DES MOINES IA
400 PM CDT MON AUG 29 2016

NOTE: "FAIR" INDICATES FEW OR NO CLOUDS BELOW 12,000 FEET WITH NO
SIGNIFICANT WEATHER AND/OR OBSTRUCTIONS TO VISIBILITY.

* - THESE STATIONS ARE NOT NWS STATIONS...THUS NOT UNDER NWS
QUALITY CONTROL.  THEY ALSO DO NOT REPORT WEATHER SUCH
AS PRECIPITATION OR FOG.

IAZ001>003-012>014-020>022-031>034-043>046-292200-
   NORTHWEST IOWA

CITY           SKY/WX    TMP DP  RH WIND       PRES   REMARKS
CARROLL *      PTSUNNY   82  73  74 E7        30.17F HX  88
CHEROKEE *     CLOUDY    82  73  73 S3        30.16F HX  87
DENISON *      SUNNY     84  72  65 VRB3      30.14F HX  89
LE MARS *      CLOUDY    82  72  69 S8        30.16F HX  87
ORANGE CITY *  CLOUDY    82  72  69 S7        30.16F HX  87
SHELDON *      CLOUDY    82  72  69 S5        30.15F HX  87
SIOUX CITY     MOSUNNY   83  72  69 SE5       30.15F HX  88
SPENCER        CLOUDY    84  69  60 S7        30.17F HX  88
STORM LAKE *   MOSUNNY   82  73  74 SE5       30.18F HX  88
$$

IAZ055>058-069>071-079>083-090>094-292200-
   SOUTHWEST IOWA

CITY           SKY/WX    TMP DP  RH WIND       PRES   REMARKS
ATLANTIC *     MOSUNNY   86  73  66 NE6       30.13F HX  93
AUDUBON *      MOSUNNY   84  73  70 E5        30.17F HX  91
CLARINDA *       N/A     81  70  69 MISG      30.15S HX  84
COUNCIL BLFS * SUNNY     84  72  65 S3        30.13F HX  89
CRESTON *      CLOUDY    73  72  94 NE13      30.18F
HARLAN  *      SUNNY     82  73  74 CALM      30.18F HX  88
LAMONI         CLOUDY    79  71  76 NE10      30.15F HX  82
RED OAK *      CLOUDY    86  73  66 SE9       30.13F HX  93
SHENANDOAH *   LGT RAIN  75 -35   1 S20       30.15R
$$

IAZ047>049-059>061-072>074-084-292200-
   CENTRAL IOWA

CITY           SKY/WX    TMP DP  RH WIND       PRES   REMARKS
AMES           MOSUNNY   83  74  74 SE5       30.17F HX  89
ANKENY *         N/A    N/A N/A N/A MISG        N/A
BOONE *        PTSUNNY   84  73  70 E7        30.17F HX  91
CHARITON *       N/A     72  70  94 MISG      30.17F
DES MOINES     TSTM      75  72  90 SE3       30.15F FOG
GRINNELL*      MOSUNNY   83  73  70 E3        30.18F HX  89
KNOXVILLE *    LGT RAIN  75  70  83 SW6       30.17R
MARSHALLTOWN   MOSUNNY   81  74  79 VRB3      30.17F HX  86
NEWTON *       PTSUNNY   82  72  69 CALM      30.17F HX  87
PELLA *        CLOUDY    78  68  72 CALM      30.18S HX  80
PERRY *        PTSUNNY   84  75  74 NE6       30.16F HX  93
$$

IAZ004>006-015-016-023>025-035-036-292200-
   NORTH CENTRAL IOWA

CITY           SKY/WX    TMP DP  RH WIND       PRES   REMARKS
ALGONA *       CLOUDY    77  68  73 SE7G15    30.19F
ESTHERVILLE    PTSUNNY   78  70  76 SE8       30.18F HX  80
FORT DODGE *   CLOUDY    73  68  83 E8        30.20S
MASON CITY     CLOUDY    72  69  90 SW5       30.19F
FOREST CITY *    N/A    N/A N/A N/A MISG        N/A
WEBSTER CITY * PTSUNNY   81  70  69 E15G21    30.17F HX  84
IOWA FALLS *   HVY RAIN  70  68  92 NE12      30.22F
$$

IAZ007>011-017>019-026>030-037>042-050>054-066-292200-
   NORTHEAST IOWA

CITY           SKY/WX    TMP DP  RH WIND       PRES   REMARKS
CEDAR RAPIDS   PTSUNNY   84  74  71 NE8       30.17F HX  91
CHARLES CITY * LGT RAIN  75  75 100 S5        30.19F
CLINTON *      LGT RAIN  81  75  83 SW10      30.18F HX  86
DECORAH *      CLOUDY    77  73  88 CALM      30.17F
DUBUQUE        CLOUDY    80  73  79 CALM      30.20F HX  84
MONTICELLO *   CLOUDY    79  68  69 E6        30.18F HX  81
OELWEIN *      CLOUDY    81  73  78 S5        30.20S HX  85
WATERLOO       CLOUDY    79  72  79 E7        30.17F HX  82
$$

IAZ064-065-067-068-078-292200-
   EAST CENTRAL IOWA

CITY           SKY/WX    TMP DP  RH WIND       PRES   REMARKS
DAVENPORT      CLOUDY    79  72  79 VRB3      30.19F HX  82
IOWA CITY      MOSUNNY   85  72  65 N5        30.17F HX  91
MT. PLEASANT * PTSUNNY   92  73  52 CALM      30.14F HX 101
QUAD CITIES    CLOUDY    81  68  64 S10       30.17F HX  84
$$

IAZ062-063-075>077-085>089-095>099-292200-
   SOUTHEAST IOWA

CITY           SKY/WX    TMP DP  RH WIND       PRES   REMARKS
BURLINGTON     CLOUDY    86  76  71 S7        30.14F HX  96
FAIRFIELD *    CLOUDY    84  73  70 NE6       30.15S HX  91
FORT MADISON *   N/A     88  73  62 CALM      30.15F HX  96
KEOKUK *       SUNNY     88  72  58 SE7       30.14S HX  94
OSKALOOSA *      N/A     76  74  94 NW5       30.18R
CENTERVILLE *    N/A     79  70  73 NW12      30.18S HX  81
OTTUMWA        CLOUDY    77  71  82 N7        30.16S
WASHINGTON *   CLOUDY    84  77  79 NE7       30.16F HX  94
$$

ABBREVIATIONS USED IN REMARKS
   TC - TEMPERATURES IN CELSIUS
  WCI - WIND CHILL INDEX
   HX - HEAT INDEX
  VSB - VISIBILITY
$$





USA.gov is the U.S. government's official web portal to all federal, state and local government web resources and services.